When you browse on this site, cookies collect data to enhance your experience and personalize the content and advertising you see.
Visit our Privacy Policy to learn more. By continuing to use the site, you agree to this use of cookies and data.
EN

Hourly Weather Mykulychi

Today, 3 August, Monday

Time Temperature Precipitation Wind Pressure Humidity
00:00 +14°C° 0 mm 0 mps 747 mmHg 82%
01:00 +13°C° 0 mm 0 mps 748 mmHg 83%
02:00 +14°C° 0 mm 1 mps 748 mmHg 85%
03:00 +13°C° 0 mm 0 mps 748 mmHg 85%
04:00 +13°C° 0 mm 0 mps 748 mmHg 85%
05:00 +13°C° 0 mm 0 mps 748 mmHg 85%
06:00 +15°C° 0 mm 0 mps 748 mmHg 79%
07:00 +19°C° 0 mm 1 mps 748 mmHg 72%
08:00 +21°C° 0 mm 1 mps 749 mmHg 65%
09:00 +22°C° 0 mm 1 mps 749 mmHg 60%
10:00 +23°C° 0 mm 2 mps 749 mmHg 55%
11:00 +24°C° 0 mm 2 mps 749 mmHg 51%
12:00 +25°C° 0 mm 2 mps 749 mmHg 50%
13:00 +25°C° 0 mm 2 mps 748 mmHg 50%
14:00 +25°C° 0 mm 2 mps 748 mmHg 50%
15:00 +25°C° 0 mm 3 mps 748 mmHg 52%
16:00 +25°C° 0 mm 3 mps 748 mmHg 53%
17:00 +25°C° 0 mm 3 mps 748 mmHg 55%
18:00 +22°C° 0 mm 3 mps 748 mmHg 60%
19:00 +21°C° 0 mm 2 mps 747 mmHg 64%
20:00 +19°C° 0 mm 2 mps 747 mmHg 69%
21:00 +19°C° 0 mm 2 mps 747 mmHg 69%
22:00 +18°C° 0 mm 3 mps 747 mmHg 70%
23:00 +17°C° 0 mm 3 mps 748 mmHg 71%

Tomorrow, 4 August, Tuesday

Time Temperature Precipitation Wind Pressure Humidity
00:00 +17°C° 0 mm 3 mps 748 mmHg 72%
01:00 +17°C° 0 mm 3 mps 748 mmHg 73%
02:00 +16°C° 0 mm 3 mps 748 mmHg 74%
03:00 +16°C° 0 mm 3 mps 748 mmHg 76%
04:00 +16°C° 0 mm 3 mps 747 mmHg 77%
05:00 +14°C° 0 mm 3 mps 747 mmHg 79%
06:00 +17°C° 0 mm 3 mps 747 mmHg 75%
07:00 +19°C° 0 mm 4 mps 748 mmHg 71%
08:00 +20°C° 0 mm 4 mps 748 mmHg 67%
09:00 +22°C° 0 mm 4 mps 748 mmHg 61%
10:00 +25°C° 0 mm 5 mps 748 mmHg 55%
11:00 +26°C° 0 mm 5 mps 748 mmHg 49%
12:00 +27°C° 0 mm 5 mps 748 mmHg 48%
13:00 +28°C° 0 mm 5 mps 748 mmHg 46%
14:00 +28°C° 0 mm 4 mps 748 mmHg 45%
15:00 +28°C° 0 mm 4 mps 748 mmHg 47%
16:00 +28°C° 0 mm 4 mps 747 mmHg 49%
17:00 +28°C° 0 mm 3 mps 747 mmHg 50%
18:00 +26°C° 0 mm 3 mps 747 mmHg 54%
19:00 +24°C° 0 mm 2 mps 747 mmHg 58%
20:00 +21°C° 0 mm 2 mps 747 mmHg 62%
21:00 +21°C° 0 mm 2 mps 747 mmHg 64%
22:00 +20°C° 0 mm 2 mps 748 mmHg 65%
23:00 +20°C° 0 mm 3 mps 748 mmHg 67%

Day after tomorrow, 5 August, Wednesday

Time Temperature Precipitation Wind Pressure Humidity
00:00 +19°C° 0 mm 3 mps 748 mmHg 67%
01:00 +19°C° 0 mm 3 mps 748 mmHg 67%
02:00 +18°C° 0 mm 3 mps 748 mmHg 67%
03:00 +18°C° 0 mm 2 mps 748 mmHg 68%
04:00 +17°C° 0 mm 2 mps 748 mmHg 70%
05:00 +17°C° 0 mm 2 mps 748 mmHg 71%
06:00 +19°C° 0 mm 2 mps 749 mmHg 67%
07:00 +21°C° 0 mm 2 mps 749 mmHg 62%
08:00 +24°C° 0 mm 2 mps 749 mmHg 58%
09:00 +25°C° 0 mm 2 mps 749 mmHg 54%
10:00 +27°C° 0 mm 2 mps 749 mmHg 49%
11:00 +28°C° 0 mm 2 mps 750 mmHg 45%
12:00 +29°C° 0 mm 2 mps 750 mmHg 43%
13:00 +30°C° 0 mm 2 mps 750 mmHg 41%
14:00 +30°C° 0 mm 2 mps 750 mmHg 38%
15:00 +30°C° 0 mm 2 mps 750 mmHg 40%
16:00 +30°C° 0 mm 2 mps 750 mmHg 43%
17:00 +29°C° 0 mm 2 mps 750 mmHg 45%
18:00 +27°C° 0 mm 2 mps 750 mmHg 51%
19:00 +26°C° 0 mm 2 mps 750 mmHg 56%
20:00 +24°C° 0 mm 2 mps 750 mmHg 62%
21:00 +23°C° 0 mm 2 mps 750 mmHg 63%
22:00 +21°C° 0 mm 2 mps 751 mmHg 64%
23:00 +20°C° 0 mm 2 mps 751 mmHg 66%

6 August, Thursday

Time Temperature Precipitation Wind Pressure Humidity
00:00 +21°C° 0 mm 1 mps 751 mmHg 67%
01:00 +20°C° 0 mm 1 mps 751 mmHg 69%
02:00 +20°C° 0 mm 1 mps 751 mmHg 71%
03:00 +19°C° 0 mm 1 mps 751 mmHg 73%
04:00 +19°C° 0 mm 1 mps 751 mmHg 75%
05:00 +19°C° 0 mm 1 mps 752 mmHg 76%
06:00 +21°C° 0 mm 1 mps 752 mmHg 71%
07:00 +22°C° 0 mm 1 mps 752 mmHg 66%
08:00 +24°C° 0 mm 2 mps 752 mmHg 61%
09:00 +25°C° 0 mm 2 mps 752 mmHg 56%
10:00 +27°C° 0 mm 2 mps 752 mmHg 51%
11:00 +28°C° 0 mm 2 mps 752 mmHg 47%
12:00 +29°C° 0 mm 2 mps 752 mmHg 45%
13:00 +29°C° 0 mm 3 mps 752 mmHg 44%
14:00 +30°C° 0 mm 3 mps 752 mmHg 42%
15:00 +29°C° 0 mm 3 mps 752 mmHg 44%
16:00 +29°C° 0 mm 3 mps 752 mmHg 47%
17:00 +29°C° 0 mm 3 mps 752 mmHg 49%
18:00 +27°C° 0 mm 2 mps 752 mmHg 55%
19:00 +25°C° 0 mm 2 mps 752 mmHg 60%
20:00 +23°C° 0 mm 1 mps 752 mmHg 66%
21:00 +22°C° 0 mm 1 mps 752 mmHg 68%
22:00 +22°C° 0 mm 1 mps 752 mmHg 70%
23:00 +21°C° 0 mm 1 mps 752 mmHg 72%

7 August, Friday

Time Temperature Precipitation Wind Pressure Humidity
00:00 +21°C° 0 mm 1 mps 752 mmHg 74%
01:00 +20°C° 0 mm 1 mps 752 mmHg 76%
02:00 +19°C° 0 mm 2 mps 752 mmHg 78%
03:00 +19°C° 0 mm 2 mps 752 mmHg 79%
04:00 +18°C° 0 mm 2 mps 753 mmHg 80%
05:00 +18°C° 0 mm 2 mps 753 mmHg 82%
06:00 +20°C° 0 mm 2 mps 753 mmHg 76%
07:00 +23°C° 0 mm 2 mps 753 mmHg 71%
08:00 +24°C° 0 mm 3 mps 753 mmHg 66%
09:00 +26°C° 0.1 mm 3 mps 753 mmHg 63%
10:00 +27°C° 0.1 mm 3 mps 753 mmHg 60%
11:00 +29°C° 0.1 mm 3 mps 753 mmHg 57%
12:00 +29°C° 0.5 mm 4 mps 753 mmHg 57%
13:00 +29°C° 0.5 mm 4 mps 752 mmHg 57%
14:00 +29°C° 0.5 mm 4 mps 752 mmHg 57%
15:00 +29°C° 0.3 mm 4 mps 752 mmHg 59%
16:00 +28°C° 0.3 mm 5 mps 752 mmHg 60%
17:00 +28°C° 0.3 mm 5 mps 751 mmHg 61%
18:00 +26°C° 0 mm 5 mps 751 mmHg 64%
19:00 +25°C° 0 mm 4 mps 752 mmHg 68%
20:00 +22°C° 0 mm 4 mps 752 mmHg 72%
21:00 +21°C° 0 mm 4 mps 752 mmHg 74%
22:00 +20°C° 0 mm 4 mps 752 mmHg 76%
23:00 +19°C° 0 mm 4 mps 751 mmHg 79%

8 August, Saturday

Time Temperature Precipitation Wind Pressure Humidity
00:00 +19°C° 0 mm 4 mps 751 mmHg 82%
01:00 +18°C° 0 mm 4 mps 751 mmHg 86%
02:00 +18°C° 0 mm 3 mps 751 mmHg 90%
03:00 +18°C° 0 mm 3 mps 751 mmHg 89%
04:00 +17°C° 0 mm 3 mps 751 mmHg 88%
05:00 +17°C° 0 mm 3 mps 751 mmHg 88%
06:00 +18°C° 0 mm 4 mps 751 mmHg 81%
07:00 +20°C° 0 mm 4 mps 751 mmHg 75%
08:00 +21°C° 0 mm 4 mps 751 mmHg 68%
09:00 +22°C° 0 mm 4 mps 751 mmHg 63%
10:00 +25°C° 0 mm 5 mps 751 mmHg 57%
11:00 +26°C° 0 mm 5 mps 751 mmHg 52%
12:00 +26°C° 0 mm 5 mps 750 mmHg 51%
13:00 +27°C° 0 mm 5 mps 750 mmHg 50%
14:00 +27°C° 0 mm 4 mps 750 mmHg 50%
15:00 +27°C° 0 mm 4 mps 749 mmHg 51%
16:00 +27°C° 0 mm 4 mps 749 mmHg 53%
17:00 +26°C° 0 mm 4 mps 749 mmHg 54%
18:00 +25°C° 0.1 mm 4 mps 749 mmHg 62%
19:00 +22°C° 0.1 mm 3 mps 749 mmHg 70%
20:00 +21°C° 0.1 mm 3 mps 749 mmHg 78%
21:00 +20°C° 0.1 mm 3 mps 749 mmHg 80%
22:00 +19°C° 0.1 mm 3 mps 749 mmHg 82%
23:00 +19°C° 0.1 mm 3 mps 749 mmHg 84%
Show more